Change the Weather History Date:

Tuesday, October 9, 2012

  Actual Average Record
Temperature  
Mean Temperature 52 °F -  
Max Temperature 68 °F 74 °F 90 °F (1941)
Min Temperature 37 °F 48 °F 30 °F (2000)
Degree Days  
Heating Degree Days 14    
Growing Degree Days 2 (Base 50)    
Moisture  
Dew Point 42 °F    
Average Humidity 70    
Maximum Humidity 93    
Minimum Humidity 44    
Precipitation  
Precipitation 0.00 in - - ()
Sea Level Pressure  
Sea Level Pressure 30.06 in    
Wind  
Wind Speed 3 mph (SSW)    
Max Wind Speed 13 mph    
Max Gust Speed 23 mph    
Visibility 9 miles    
Events      
Averages and records for this station are not official NWS values.
T = Trace of Precipitation, MM = Missing Value Source: NWS Daily Summary

Daily Weather History Graph

Daily Weather History Graph

Search for Another Location

Airport or City:

Trip Planner

Search our weather history database for the weather conditions in past years. The results will help you decide how hot, cold, wet, or windy it might be!

Date:

Astronomy

Oct. 09, 2012 Rise Set
Actual Time 7:03 AM CDT 6:32 PM CDT
Civil Twilight 6:37 AM CDT 6:58 PM CDT
Nautical Twilight 6:07 AM CDT 7:28 PM CDT
Astronomical Twilight 5:37 AM CDT 7:58 PM CDT
Moon 12:49 AM CDT (10/9) 2:51 PM CDT (10/9)
Length of Visible Light 12h 20m
Length of Day
11h 28m
Last Quarter, 36% of the Moon is Illuminated
Oct 9
Last Quarter
Oct 15
New
Oct 21
First Quarter
Oct 29
Full
Nov 6
Last Quarter

Hourly Weather History & Observations

Time (CDT) Temp. Dew Point Humidity Pressure Visibility Wind Dir Wind Speed Gust Speed Precip Events Conditions
12:53 AM 42.1 °F 39.9 °F 92% 30.12 in 9.0 mi Calm Calm - N/A   Clear
1:53 AM 41.0 °F 39.0 °F 93% 30.13 in 10.0 mi Calm Calm - N/A   Clear
3:53 AM 39.9 °F 37.0 °F 89% 30.12 in 7.0 mi Calm Calm - N/A   Clear
4:53 AM 39.0 °F 36.0 °F 89% 30.11 in 10.0 mi Calm Calm - N/A   Clear
5:53 AM 37.9 °F 36.0 °F 93% 30.12 in 7.0 mi Calm Calm - N/A   Clear
6:21 AM 37.4 °F 35.6 °F 93% 30.12 in 2.0 mi Calm Calm - N/A   Clear
6:31 AM 37.4 °F 35.6 °F 93% 30.12 in 6.0 mi Calm Calm - N/A   Clear
6:53 AM 37.9 °F 36.0 °F 93% 30.13 in 8.0 mi Calm Calm - N/A   Clear
7:53 AM 39.0 °F 37.0 °F 93% 30.14 in 10.0 mi Calm Calm - N/A   Clear
8:53 AM 48.0 °F 43.0 °F 83% 30.14 in 10.0 mi SSW 4.6 mph - N/A   Clear
9:53 AM 54.0 °F 45.0 °F 72% 30.14 in 10.0 mi WSW 6.9 mph - N/A   Clear
10:53 AM 57.9 °F 43.0 °F 58% 30.13 in 10.0 mi SW 12.7 mph - N/A   Clear
11:53 AM 62.1 °F 44.1 °F 52% 30.09 in 10.0 mi SSW 12.7 mph 20.7 mph N/A   Partly Cloudy
12:53 PM 63.0 °F 44.1 °F 50% 30.06 in 10.0 mi SSW 12.7 mph 23.0 mph N/A   Partly Cloudy
1:53 PM 64.9 °F 44.1 °F 47% 30.03 in 10.0 mi Variable 4.6 mph 17.3 mph N/A   Clear
2:53 PM 66.0 °F 44.1 °F 45% 30.00 in 10.0 mi North - - N/A   Clear
3:53 PM 66.9 °F 44.1 °F 44% 29.98 in 10.0 mi SSE 12.7 mph - N/A   Clear
4:53 PM 66.9 °F 45.0 °F 45% 29.97 in 10.0 mi South 10.4 mph - N/A   Clear
5:53 PM 64.0 °F 45.0 °F 50% 29.98 in 10.0 mi South 9.2 mph - N/A   Clear
6:53 PM 59.0 °F 46.0 °F 62% 29.97 in 10.0 mi South 5.8 mph - N/A   Clear
7:53 PM 59.0 °F 46.0 °F 62% 29.98 in 10.0 mi South 5.8 mph - N/A   Mostly Cloudy
8:53 PM 60.1 °F 46.9 °F 62% 29.98 in 10.0 mi South 4.6 mph - N/A   Overcast
9:53 PM 60.1 °F 48.0 °F 64% 30.00 in 10.0 mi SSW 4.6 mph - N/A   Overcast
10:53 PM 61.0 °F 48.9 °F 64% 30.00 in 10.0 mi SSW 5.8 mph - N/A   Overcast
11:53 PM 61.0 °F 48.9 °F 64% 30.00 in 10.0 mi SW 5.8 mph - N/A   Overcast